Overview Statistics Trail Chart Weather Telemetry Raw packets
 

This is the latest recevied weather packets stored in our database for station/object R2AKT-13. If no packets are shown the sender has not sent any weather packets the latest 10 day(s).

<< 22 23 24 25 26 27 28 >>
Time Temp. Humidity Pressure Rain* Wind** Luminosity Snow
1788406459 14.44° C 80% 988.9 hPa - 0.89 m/s, 263° - -
1788405885 15° C 79% 988.8 hPa - 0.89 m/s, 261° - -
1788405316 15° C 78% 988.9 hPa - 0.45 m/s, 195° - -
1788404816 15° C 78% 988.8 hPa - 0.89 m/s, 145° - -
1788404220 15° C 77% 988.8 hPa - 0 m/s - -
1788403676 15° C 78% 988.7 hPa - 1.34 m/s, 264° - -
1788403111 15° C 78% 988.7 hPa - 1.34 m/s, 193° - -
1788402517 14.44° C 80% 988.6 hPa - 0.89 m/s, 266° - -
1788401961 15° C 78% 988.6 hPa - 0.45 m/s, 163° - -
1788401371 15° C 79% 988.6 hPa - 0.89 m/s, 219° - -
1788400885 14.44° C 81% 988.5 hPa - 0.45 m/s, 268° - -
1788400286 14.44° C 81% 988.6 hPa - 0 m/s - -
1788399726 14.44° C 81% 988.6 hPa - 0 m/s - -
1788399161 14.44° C 81% 988.6 hPa - 0.45 m/s, 262° - -
1788398661 15° C 80% 988.5 hPa - 0.89 m/s, 265° - -
1788398155 14.44° C 80% 988.4 hPa - 1.34 m/s, 274° - -
1788397641 15° C 80% 988.4 hPa - 0.89 m/s, 256° - -
1788397045 14.44° C 80% 988.4 hPa - 0.89 m/s, 262° - -
1788396496 15° C 79% 988.3 hPa - 0.89 m/s, 243° - -
1788396001 15° C 79% 988.4 hPa - 0.89 m/s, 266° - -
1788395521 15° C 80% 988.3 hPa - 1.79 m/s, 249° - -
1788394966 15° C 79% 988.4 hPa - 0.89 m/s, 225° - -
1788394416 15° C 79% 988.4 hPa - 1.34 m/s, 230° - -
1788393915 14.44° C 80% 988.4 hPa - 0.45 m/s, 257° - -
1788393395 14.44° C 81% 988.4 hPa - 0.89 m/s, 264° - -

* Rain since midnight (hover to see other rain measurements)
** Current wind speed in m/s (hover to see current wind gust speed)